Marrakech, Morocco

2:01 AM WEST on September 23, 2017 (GMT +0100)
Marrakech

Weather History for GMMX - December, 2013

Change the Weather History Date:

Tuesday, December 24, 2013

  Actual Average Record
Temperature  
Mean Temperature 55 °F -  
Max Temperature 69 °F 63 °F 80 °F (2012)
Min Temperature 41 °F 42 °F 33 °F (2006)
Degree Days  
Heating Degree Days 10    
Growing Degree Days 5 (Base 50)    
Moisture  
Dew Point 35 °F    
Average Humidity 49    
Maximum Humidity 76    
Minimum Humidity 16    
Precipitation  
Precipitation 0.00 in 0.04 in - ()
Sea Level Pressure  
Sea Level Pressure 30.26 in    
Wind  
Wind Speed 3 mph ()    
Max Wind Speed 9 mph    
Max Gust Speed -    
Visibility 5.8 miles    
Events      
Averages and records for this station are not official NWS values.
T = Trace of Precipitation, MM = Missing Value Source: Averaged Metar Reports

Daily Weather History Graph

Daily Weather History Graph

Search for Another Location

Airport or City:

Trip Planner

Search our weather history database for the weather conditions in past years. The results will help you decide how hot, cold, wet, or windy it might be!

Date:

Astronomy

Dec. 24, 2013 Rise Set
Actual Time 7:29 AM WET 5:34 PM WET
Civil Twilight 7:02 AM WET 6:01 PM WET
Nautical Twilight 6:31 AM WET 6:31 PM WET
Astronomical Twilight 6:02 AM WET 7:01 PM WET
Moon No Moon Rise 11:39 AM WET (12/24)
Length of Visible Light 10h 59m
Length of Day
10h 05m
Waning Gibbous, 61% of the Moon is Illuminated
Dec 24
Waning Gibbous
Dec 25
Last Quarter
Jan 1
New
Jan 8
First Quarter
Jan 16
Full

Hourly Weather History & Observations

Time (WET) Temp. Windchill Dew Point Humidity Pressure Visibility Wind Dir Wind Speed Gust Speed Precip Events Conditions
12:00 AM 49 °F - 35 °F 48% 30.33 in 6 mi Calm Calm - -  
12:00 AM 50.0 °F - 35.6 °F 58% 30.30 in - Calm Calm - N/A   Clear
12:30 AM 48.2 °F - 35.6 °F 62% 30.30 in - NE 3.5 mph - N/A   Clear
1:00 AM 48.2 °F - 35.6 °F 62% 30.30 in - SSE 3.5 mph - N/A   Clear
1:30 AM 48.2 °F - 35.6 °F 62% 30.30 in - Variable 1.2 mph - N/A   Clear
2:00 AM 46.4 °F - 33.8 °F 62% 30.30 in - Variable 1.2 mph - N/A   Clear
2:30 AM 48.2 °F - 33.8 °F 58% 30.27 in - South 5.8 mph - N/A   Clear
3:00 AM 48 °F - 34 °F 47% 30.31 in 6 mi ESE 2.3 mph - -  
3:00 AM 48.2 °F - 33.8 °F 58% 30.27 in - Variable 2.3 mph - N/A   Clear
3:30 AM 48.2 °F - 33.8 °F 58% 30.27 in - Variable 2.3 mph - N/A   Clear
4:00 AM 46.4 °F 45.2 °F 35.6 °F 66% 30.24 in - ESE 3.5 mph - N/A   Clear
4:30 AM 42.8 °F 41.1 °F 35.6 °F 76% 30.24 in - SE 3.5 mph - N/A   Clear
5:00 AM 46.4 °F - 35.6 °F 66% 30.24 in - Variable 1.2 mph - N/A   Clear
5:30 AM 46.4 °F - 33.8 °F 62% 30.21 in - Variable 2.3 mph - N/A   Clear
6:00 AM 43 °F - 34 °F 61% 30.25 in 6 mi ESE 4.6 mph - -  
6:00 AM 42.8 °F 41.1 °F 33.8 °F 70% 30.21 in - ESE 3.5 mph - N/A   Clear
6:30 AM 44.6 °F 43.1 °F 33.8 °F 66% 30.21 in - ENE 3.5 mph - N/A   Clear
7:00 AM 42.8 °F 40.1 °F 35.6 °F 76% 30.21 in - NE 4.6 mph - N/A   Clear
7:30 AM 41.0 °F 37.1 °F 33.8 °F 76% 30.24 in - East 5.8 mph - N/A   Clear
8:00 AM 41.0 °F 38.0 °F 33.8 °F 76% 30.24 in 5.6 mi East 4.6 mph - N/A   Unknown
8:30 AM 42.8 °F 40.1 °F 35.6 °F 76% 30.27 in 5.6 mi ESE 4.6 mph - N/A   Unknown
9:00 AM 49 °F - 34 °F 45% 30.32 in 6 mi SSE 3.5 mph - -  
9:00 AM 48.2 °F - 33.8 °F 58% 30.27 in - SE 3.5 mph - N/A   Clear
9:30 AM 51.8 °F - 33.8 °F 50% 30.30 in - Variable 1.2 mph - N/A   Clear
10:00 AM 55.4 °F - 35.6 °F 47% 30.30 in - Variable 2.3 mph - N/A   Clear
10:30 AM 59.0 °F - 33.8 °F 39% 30.30 in - SSE 3.5 mph - N/A   Clear
11:00 AM 60.8 °F - 33.8 °F 36% 30.27 in - South 4.6 mph - N/A   Clear
11:30 AM 64.4 °F - 33.8 °F 32% 30.27 in - Variable 1.2 mph - N/A   Clear
12:00 PM 66 °F - 34 °F 19% 30.22 in 6 mi SE 2.3 mph - -   Clear
12:00 PM 66.2 °F - 33.8 °F 30% 30.24 in - SSE 3.5 mph - N/A   Clear
12:30 PM 66.2 °F - 35.6 °F 32% 30.24 in - North 5.8 mph - N/A   Clear
1:00 PM 66.2 °F - 35.6 °F 32% 30.24 in - NNW 4.6 mph - N/A   Clear
1:30 PM 68.0 °F - 33.8 °F 28% 30.24 in - NW 6.9 mph - N/A   Clear
2:00 PM 68.0 °F - 35.6 °F 30% 30.21 in - NW 5.8 mph - N/A   Clear
2:30 PM 69.8 °F - 33.8 °F 27% 30.21 in - West 6.9 mph - N/A   Clear
3:00 PM 69 °F - 33 °F 16% 30.20 in 6 mi WNW 9.2 mph - -   Clear
3:00 PM 68.0 °F - 33.8 °F 28% 30.24 in - WNW 9.2 mph - N/A   Clear
3:30 PM 68.0 °F - 33.8 °F 28% 30.24 in - NW 9.2 mph - N/A   Clear
4:00 PM 66.2 °F - 33.8 °F 30% 30.24 in - NW 6.9 mph - N/A   Clear
4:30 PM 68.0 °F - 35.6 °F 30% 30.24 in - West 8.1 mph - N/A   Clear
5:00 PM 68.0 °F - 35.6 °F 30% 30.24 in - West 6.9 mph - N/A   Clear
5:30 PM 66.2 °F - 35.6 °F 32% 30.24 in - West 4.6 mph - N/A   Clear
5:47 PM 63 °F - 36 °F 24% 30.24 in 6 mi WNW 6.9 mph - -   Clear
6:00 PM 62.6 °F - 35.6 °F 37% 30.24 in - WNW 6.9 mph - N/A   Clear
6:30 PM 60.8 °F - 35.6 °F 39% 30.27 in 5.6 mi WNW 8.1 mph - N/A   Unknown
7:00 PM 59.0 °F - 37.4 °F 45% 30.27 in - WSW 3.5 mph - N/A   Clear
7:30 PM 59.0 °F - 37.4 °F 45% 30.27 in - SW 3.5 mph - N/A   Clear
8:00 PM 57.2 °F - 37.4 °F 48% 30.24 in - SW 3.5 mph - N/A   Clear
8:30 PM 53.6 °F - 37.4 °F 54% 30.24 in - SW 1.2 mph - N/A   Clear
9:00 PM 53 °F - 36 °F 41% 30.27 in 6 mi Calm Calm - -   Clear
9:00 PM 53.6 °F - 37.4 °F 54% 30.24 in 5.6 mi Calm Calm - N/A   Unknown
9:30 PM 51.8 °F - 37.4 °F 58% 30.24 in 5.6 mi Variable 1.2 mph - N/A   Unknown
10:00 PM 51.8 °F - 37.4 °F 58% 30.24 in - South 3.5 mph - N/A   Clear
10:30 PM 51.8 °F - 37.4 °F 58% 30.27 in - South 3.5 mph - N/A   Clear
11:00 PM 51.8 °F - 37.4 °F 58% 30.24 in - SSE 4.6 mph - N/A   Clear
11:30 PM 48.2 °F - 37.4 °F 66% 30.24 in - East 1.2 mph - N/A   Clear